Weather History for KMUT - March, 2014

Change the Weather History Date:

Friday, March 14, 2014

  Actual Average Record
Temperature  
Mean Temperature 44 °F -  
Max Temperature 55 °F 47 °F 80 °F (2012)
Min Temperature 33 °F 28 °F 0 °F (1960)
Degree Days  
Heating Degree Days 21    
Moisture  
Dew Point 32 °F    
Average Humidity 58    
Maximum Humidity 93    
Minimum Humidity 44    
Precipitation  
Precipitation 0.00 in - - ()
Sea Level Pressure  
Sea Level Pressure 29.76 in    
Wind  
Wind Speed 12 mph (West)    
Max Wind Speed 26 mph    
Max Gust Speed 34 mph    
Visibility 10 miles    
Events      
Averages and records for this station are not official NWS values.
T = Trace of Precipitation, MM = Missing Value Source: NWS Daily Summary

Daily Weather History Graph

Daily Weather History Graph

Search for Another Location

Airport or City:

Trip Planner

Search our weather history database for the weather conditions in past years. The results will help you decide how hot, cold, wet, or windy it might be!

Date:

Astronomy

Mar. 14, 2014 Rise Set
Actual Time 7:17 AM CDT 7:10 PM CDT
Civil Twilight 6:50 AM CDT 7:37 PM CDT
Nautical Twilight 6:18 AM CDT 8:09 PM CDT
Astronomical Twilight 5:45 AM CDT 8:42 PM CDT
Moon 5:31 PM CDT (3/14) 5:59 AM CDT (3/14)
Length of Visible Light 12h 47m
Length of Day
11h 52m
Waxing Gibbous, 96% of the Moon is Illuminated
Mar 14
Waxing Gibbous
Mar 16
Full
Mar 23
Last Quarter
Mar 30
New
Apr 7
First Quarter

Hourly Weather History & Observations

Time (CDT) Temp. Windchill Dew Point Humidity Pressure Visibility Wind Dir Wind Speed Gust Speed Precip Events Conditions
12:15 AM 35.6 °F - 33.8 °F 93% 29.78 in 10.0 mi Calm Calm - N/A   Clear
12:35 AM 33.8 °F - 32.0 °F 93% 29.77 in 10.0 mi Calm Calm - N/A   Clear
12:55 AM 39.2 °F - 33.8 °F 81% 29.75 in 10.0 mi Calm Calm - N/A   Clear
1:15 AM 39.2 °F - 33.8 °F 81% 29.74 in 10.0 mi Calm Calm - N/A   Clear
1:35 AM 39.2 °F - 32.0 °F 75% 29.73 in 10.0 mi Calm Calm - N/A   Clear
1:55 AM 39.2 °F - 32.0 °F 75% 29.72 in 10.0 mi Calm Calm - N/A   Clear
2:15 AM 39.2 °F 35.0 °F 32.0 °F 75% 29.71 in 10.0 mi SE 5.8 mph - N/A   Clear
2:35 AM 41.0 °F 36.4 °F 32.0 °F 70% 29.70 in 10.0 mi South 6.9 mph - N/A   Clear
2:55 AM 44.6 °F 38.1 °F 30.2 °F 57% 29.69 in 10.0 mi SSW 13.8 mph - N/A   Clear
3:15 AM 44.6 °F 37.4 °F 30.2 °F 57% 29.68 in 10.0 mi SSW 16.1 mph 21.9 mph N/A   Clear
3:35 AM 46.4 °F 39.5 °F 28.4 °F 50% 29.67 in 10.0 mi SW 17.3 mph 25.3 mph N/A   Clear
3:55 AM 46.4 °F 39.5 °F 28.4 °F 50% 29.67 in - SW 17.3 mph 25.3 mph N/A   Clear
4:15 AM 46.4 °F 38.7 °F 28.4 °F 50% 29.66 in 10.0 mi SW 20.7 mph 29.9 mph N/A   Clear
4:35 AM 46.4 °F 38.7 °F 28.4 °F 50% 29.64 in 10.0 mi SSW 20.7 mph 27.6 mph N/A   Clear
4:55 AM 46.4 °F 39.2 °F 28.4 °F 50% 29.64 in 10.0 mi SSW 18.4 mph 25.3 mph N/A   Clear
5:15 AM 46.4 °F 38.7 °F 28.4 °F 50% 29.63 in 10.0 mi SSW 20.7 mph - N/A   Clear
5:35 AM 44.6 °F 36.4 °F 28.4 °F 53% 29.62 in 10.0 mi SSW 20.7 mph 26.5 mph N/A   Clear
5:55 AM 46.4 °F 39.2 °F 28.4 °F 50% 29.64 in 10.0 mi SW 18.4 mph 27.6 mph N/A   Clear
6:15 AM 46.4 °F 39.5 °F 28.4 °F 50% 29.64 in 10.0 mi SW 17.3 mph 25.3 mph N/A   Clear
6:35 AM 44.6 °F 37.4 °F 28.4 °F 53% 29.63 in 10.0 mi SW 16.1 mph 23.0 mph N/A   Clear
6:55 AM 44.6 °F 37.4 °F 28.4 °F 53% 29.63 in 10.0 mi SW 16.1 mph 25.3 mph N/A   Clear
7:15 AM 44.6 °F 38.4 °F 28.4 °F 53% 29.63 in 10.0 mi SW 12.7 mph 20.7 mph N/A   Clear
7:35 AM 44.6 °F 38.1 °F 28.4 °F 53% 29.63 in 10.0 mi SW 13.8 mph - N/A   Clear
7:55 AM 44.6 °F 38.1 °F 28.4 °F 53% 29.63 in 10.0 mi SW 13.8 mph - N/A   Clear
8:15 AM 46.4 °F 39.8 °F 28.4 °F 50% 29.64 in 10.0 mi SW 16.1 mph 23.0 mph N/A   Clear
8:35 AM 46.4 °F 40.4 °F 30.2 °F 53% 29.65 in 10.0 mi WSW 13.8 mph 23.0 mph N/A   Clear
8:55 AM 46.4 °F 40.1 °F 30.2 °F 53% 29.65 in 10.0 mi WSW 15.0 mph - N/A   Clear
9:15 AM 48.2 °F - 30.2 °F 50% 29.65 in 10.0 mi West 11.5 mph 19.6 mph N/A   Clear
9:35 AM 50.0 °F - 30.2 °F 47% 29.65 in 10.0 mi West 16.1 mph - N/A   Clear
9:55 AM 50.0 °F - 32.0 °F 50% 29.69 in 10.0 mi WNW 21.9 mph 28.8 mph N/A   Clear
10:15 AM 48.2 °F - 32.0 °F 54% 29.69 in 10.0 mi WNW 18.4 mph 26.5 mph N/A   Clear
10:35 AM 50.0 °F - 33.8 °F 54% 29.69 in 10.0 mi WNW 17.3 mph - N/A   Clear
10:55 AM 51.8 °F - 33.8 °F 50% 29.70 in 10.0 mi WNW 15.0 mph 23.0 mph N/A   Clear
11:15 AM 51.8 °F - 33.8 °F 50% 29.70 in 10.0 mi WNW 17.3 mph - N/A   Clear
11:35 AM 53.6 °F - 33.8 °F 47% 29.71 in 10.0 mi WNW 18.4 mph - N/A   Clear
11:55 AM 53.6 °F - 33.8 °F 47% 29.71 in 10.0 mi WNW 18.4 mph 26.5 mph N/A   Clear
12:15 PM 55.4 °F - 33.8 °F 44% 29.72 in 10.0 mi West 24.2 mph - N/A   Clear
12:35 PM 55.4 °F - 35.6 °F 47% 29.74 in 10.0 mi WNW 20.7 mph 29.9 mph N/A   Clear
12:55 PM 53.6 °F - 35.6 °F 51% 29.74 in 10.0 mi WNW 21.9 mph 31.1 mph N/A   Clear
1:15 PM 55.4 °F - 35.6 °F 47% 29.75 in 10.0 mi West 26.5 mph 32.2 mph N/A   Clear
1:35 PM 53.6 °F - 35.6 °F 51% 29.76 in 10.0 mi WNW 24.2 mph 31.1 mph N/A   Partly Cloudy
1:55 PM 53.6 °F - 35.6 °F 51% 29.76 in 10.0 mi WNW 25.3 mph 32.2 mph N/A   Partly Cloudy
2:15 PM 53.6 °F - 35.6 °F 51% 29.77 in 10.0 mi WNW 25.3 mph 34.5 mph N/A   Partly Cloudy
2:35 PM 55.4 °F - 37.4 °F 51% 29.78 in 10.0 mi WNW 18.4 mph 29.9 mph N/A   Mostly Cloudy
2:55 PM 51.8 °F - 35.6 °F 54% 29.78 in 10.0 mi WNW 24.2 mph - N/A   Mostly Cloudy
3:15 PM 51.8 °F - 35.6 °F 54% 29.79 in 10.0 mi NW 20.7 mph 27.6 mph N/A   Mostly Cloudy
3:35 PM 51.8 °F - 35.6 °F 54% 29.80 in 10.0 mi WNW 21.9 mph 31.1 mph N/A   Mostly Cloudy
3:55 PM 53.6 °F - 35.6 °F 51% 29.81 in 10.0 mi WNW 24.2 mph - N/A   Mostly Cloudy
4:15 PM 51.8 °F - 33.8 °F 50% 29.81 in 10.0 mi WNW 23.0 mph 32.2 mph N/A   Mostly Cloudy
4:35 PM 51.8 °F - 33.8 °F 50% 29.82 in 10.0 mi WNW 20.7 mph 28.8 mph N/A   Mostly Cloudy
4:55 PM 53.6 °F - 33.8 °F 47% 29.82 in 10.0 mi WNW 25.3 mph - N/A   Mostly Cloudy
5:15 PM 51.8 °F - 32.0 °F 47% 29.82 in 10.0 mi West 21.9 mph 29.9 mph N/A   Scattered Clouds
5:35 PM 51.8 °F - 32.0 °F 47% 29.83 in 10.0 mi WNW 18.4 mph 25.3 mph N/A   Mostly Cloudy
5:55 PM 51.8 °F - 32.0 °F 47% 29.84 in 10.0 mi WNW 20.7 mph - N/A   Overcast
6:15 PM 51.8 °F - 33.8 °F 50% 29.85 in 10.0 mi NW 16.1 mph 26.5 mph N/A   Scattered Clouds
6:35 PM 50.0 °F - 33.8 °F 54% 29.86 in 10.0 mi WNW 19.6 mph 27.6 mph N/A   Partly Cloudy
6:55 PM 50.0 °F - 33.8 °F 54% 29.87 in 10.0 mi WNW 17.3 mph 24.2 mph N/A   Scattered Clouds
7:15 PM 48.2 °F - 33.8 °F 58% 29.89 in 10.0 mi NW 12.7 mph 18.4 mph N/A   Mostly Cloudy
7:35 PM 46.4 °F 40.7 °F 33.8 °F 62% 29.89 in 10.0 mi NW 12.7 mph - N/A   Scattered Clouds
7:55 PM 44.6 °F 39.2 °F 33.8 °F 66% 29.90 in 10.0 mi NW 10.4 mph - N/A   Clear
8:15 PM 42.8 °F 38.6 °F 33.8 °F 70% 29.91 in 10.0 mi WNW 6.9 mph - N/A   Clear
8:35 PM 42.8 °F 37.5 °F 33.8 °F 70% 29.92 in 10.0 mi NW 9.2 mph - N/A   Clear
8:55 PM 42.8 °F 37.0 °F 33.8 °F 70% 29.92 in 10.0 mi WNW 10.4 mph - N/A   Clear
9:15 PM 42.8 °F 38.0 °F 33.8 °F 70% 29.93 in 10.0 mi NW 8.1 mph 15.0 mph N/A   Clear
9:35 PM 42.8 °F 37.5 °F 32.0 °F 66% 29.93 in 10.0 mi WNW 9.2 mph - N/A   Partly Cloudy
9:55 PM 39.2 °F 33.6 °F 32.0 °F 75% 29.94 in 10.0 mi WNW 8.1 mph - N/A   Clear
10:15 PM 39.2 °F 33.6 °F 32.0 °F 75% 29.94 in 10.0 mi West 8.1 mph - N/A   Scattered Clouds
10:35 PM 37.4 °F 32.1 °F 32.0 °F 81% 29.95 in 10.0 mi West 6.9 mph - N/A   Scattered Clouds
10:55 PM 37.4 °F 31.4 °F 30.2 °F 75% 29.95 in 10.0 mi West 8.1 mph - N/A   Clear
11:15 PM 37.4 °F 31.4 °F 30.2 °F 75% 29.95 in 10.0 mi WNW 8.1 mph - N/A   Clear
11:35 PM 37.4 °F 30.8 °F 30.2 °F 75% 29.96 in 10.0 mi West 9.2 mph - N/A   Clear
11:55 PM 37.4 °F 30.8 °F 30.2 °F 75% 29.96 in 10.0 mi WNW 9.2 mph - N/A   Clear